Location: Belvedere Heights
(33.9836°N, 117.3109°W)
Time: 03:38:55
(UTC+00:00)

Hubble Space Telescope - Visible Passes

Search period start: 26 February 2024 00:00
Search period end: 07 March 2024 00:00
Orbit: 516 x 519 km, 28.5° (Epoch: 25 February)

Date Brightness Start Highest point End Pass type
(mag) Time Alt. Az. Time Alt. Az. Time Alt. Az.
26 Feb 2.3 03:40:56 10° WSW 03:43:17 27° SW 03:43:17 27° SW visible
27 Feb 1.6 03:23:29 10° WSW 03:26:58 36° S 03:26:58 36° S visible
28 Feb 1.6 03:06:02 10° WSW 03:09:45 37° S 03:10:37 32° SSE visible
29 Feb 1.6 02:48:35 10° WSW 02:52:18 37° S 02:54:15 22° SE visible
01 Mar 1.7 02:31:07 10° WSW 02:34:50 37° S 02:37:53 14° ESE visible
01 Mar 3.4 04:11:51 10° WSW 04:12:48 15° WSW 04:12:48 15° WSW visible
02 Mar 1.8 02:13:39 10° WSW 02:17:22 36° S 02:21:05 10° ESE visible
02 Mar 2.9 03:54:29 10° WSW 03:56:26 20° SW 03:56:26 20° SW visible
03 Mar 2.6 03:37:08 10° WSW 03:40:06 21° SSW 03:40:06 21° SSW visible
04 Mar 2.7 03:19:48 10° WSW 03:22:40 19° SSW 03:23:48 17° S visible
05 Mar 3.0 03:02:30 10° WSW 03:05:06 17° SSW 03:07:33 11° SSE visible
06 Mar 3.2 02:45:16 10° SW 02:47:33 15° SSW 02:49:49 10° SSE visible
